Time,TemperatureF,DewpointF,PressureIn,WindDirection,WindDirectionDegrees,WindSpeedMPH,WindSpeedGustMPH,Humidity,HourlyPrecipIn,Conditions,Clouds,dailyrainin,SoftwareType,DateUTC
2013-03-17 00:01:00,32.9,30.6,28.71,ESE,112,0.0,1.0,91,0.00,RA,,0.00,WeatherDisplay:10.37,2013-03-17 00:01:00,
2013-03-17 00:06:00,32.9,30.6,28.71,ESE,112,1.1,1.3,91,0.00,RA,,0.00,WeatherDisplay:10.37,2013-03-17 00:06:00,
2013-03-17 00:11:00,32.7,30.4,28.72,ESE,112,1.3,1.3,91,0.00,,,0.00,WeatherDisplay:10.37,2013-03-17 00:11:00,
2013-03-17 00:16:00,32.7,30.4,28.72,ESE,112,2.3,2.3,91,0.00,,,0.00,WeatherDisplay:10.37,2013-03-17 00:16:00,
2013-03-17 00:21:00,32.7,30.4,28.72,ESE,112,2.3,2.3,91,0.00,,,0.00,WeatherDisplay:10.37,2013-03-17 00:21:00,
2013-03-17 00:26:00,32.5,30.2,28.72,ESE,112,0.0,0.0,91,0.00,,,0.00,WeatherDisplay:10.37,2013-03-17 00:26:00,
2013-03-17 00:31:00,32.4,30.0,28.72,ESE,112,2.3,2.3,91,0.00,,,0.00,WeatherDisplay:10.37,2013-03-17 00:31:00,
2013-03-17 00:36:00,32.4,30.0,28.72,ESE,112,3.5,3.5,91,0.00,,,0.00,WeatherDisplay:10.37,2013-03-17 00:36:00,
2013-03-17 00:41:00,32.4,30.0,28.72,ESE,112,3.5,3.5,91,0.00,,,0.00,WeatherDisplay:10.37,2013-03-17 00:41:00,
2013-03-17 00:46:00,32.4,30.0,28.72,ESE,112,5.8,5.8,91,0.00,,,0.00,WeatherDisplay:10.37,2013-03-17 00:46:00,
2013-03-17 00:51:00,32.4,30.0,28.72,ESE,112,3.5,3.5,91,0.00,,,0.00,WeatherDisplay:10.37,2013-03-17 00:51:00,
2013-03-17 00:56:00,32.2,29.8,28.72,ESE,112,3.5,3.5,91,0.00,,,0.00,WeatherDisplay:10.37,2013-03-17 00:56:00,
2013-03-17 01:02:00,32.2,29.8,28.72,ESE,112,1.1,2.5,91,0.00,,,0.00,WeatherDisplay:10.37,2013-03-17 01:02:00,
2013-03-17 01:07:00,32.2,29.8,28.72,ESE,112,2.3,2.3,91,0.00,,,0.00,WeatherDisplay:10.37,2013-03-17 01:07:00,
2013-03-17 01:12:00,32.2,29.8,28.72,ESE,112,1.1,2.2,91,0.00,,,0.00,WeatherDisplay:10.37,2013-03-17 01:12:00,
2013-03-17 01:17:00,32.2,29.8,28.72,ESE,112,1.1,2.2,91,0.00,,,0.00,WeatherDisplay:10.37,2013-03-17 01:17:00,
2013-03-17 01:22:00,31.8,29.5,28.70,ESE,112,2.3,2.3,91,0.00,,,0.00,WeatherDisplay:10.37,2013-03-17 01:22:00,
2013-03-17 01:27:00,31.8,29.5,28.70,ESE,112,0.0,1.8,91,0.00,,,0.00,WeatherDisplay:10.37,2013-03-17 01:27:00,
2013-03-17 01:32:00,31.8,29.5,28.70,ESE,112,0.0,0.0,91,0.00,,,0.00,WeatherDisplay:10.37,2013-03-17 01:32:00,
2013-03-17 01:37:00,31.8,29.5,28.70,ESE,112,2.3,2.3,91,0.00,,,0.00,WeatherDisplay:10.37,2013-03-17 01:37:00,
2013-03-17 01:42:00,31.8,29.5,28.70,ESE,112,3.5,3.5,91,0.00,,,0.00,WeatherDisplay:10.37,2013-03-17 01:42:00,
2013-03-17 01:47:00,31.8,29.5,28.70,ESE,112,3.5,3.5,91,0.00,,,0.00,WeatherDisplay:10.37,2013-03-17 01:47:00,
2013-03-17 01:52:00,31.8,29.5,28.70,ESE,112,1.1,1.1,91,0.00,,,0.00,WeatherDisplay:10.37,2013-03-17 01:52:00,
2013-03-17 01:57:00,31.6,29.3,28.70,ESE,112,3.5,3.5,91,0.00,,,0.00,WeatherDisplay:10.37,2013-03-17 01:57:00,
2013-03-17 02:02:00,31.6,29.3,28.70,ESE,112,1.1,2.7,91,0.00,,,0.00,WeatherDisplay:10.37,2013-03-17 02:02:00,
2013-03-17 02:07:00,31.6,29.3,28.69,ESE,112,0.0,0.0,91,0.00,,,0.00,WeatherDisplay:10.37,2013-03-17 02:07:00,
2013-03-17 02:13:00,31.3,29.0,28.69,ESE,112,3.5,3.5,91,0.00,,,0.00,WeatherDisplay:10.37,2013-03-17 02:13:00,
2013-03-17 02:18:00,31.3,29.0,28.69,ESE,112,2.3,2.3,91,0.00,,,0.00,WeatherDisplay:10.37,2013-03-17 02:18:00,
2013-03-17 02:23:00,31.3,29.0,28.69,ESE,112,2.3,2.3,91,0.00,,,0.00,WeatherDisplay:10.37,2013-03-17 02:23:00,
2013-03-17 02:28:00,30.9,28.6,28.69,ESE,112,0.0,1.5,91,0.00,,,0.00,WeatherDisplay:10.37,2013-03-17 02:28:00,
2013-03-17 02:33:00,30.9,28.6,28.69,ESE,112,3.5,3.5,91,0.00,,,0.00,WeatherDisplay:10.37,2013-03-17 02:33:00,
2013-03-17 02:38:00,30.9,28.6,28.69,ESE,112,1.1,1.4,91,0.00,,,0.00,WeatherDisplay:10.37,2013-03-17 02:38:00,
2013-03-17 02:43:00,30.9,28.6,28.69,ESE,112,3.5,3.6,91,0.00,,,0.00,WeatherDisplay:10.37,2013-03-17 02:43:00,
2013-03-17 02:48:00,30.7,28.4,28.68,ESE,112,2.3,3.6,91,0.00,,,0.00,WeatherDisplay:10.37,2013-03-17 02:48:00,
2013-03-17 02:53:00,30.7,28.4,28.68,ESE,112,1.1,1.1,91,0.00,,,0.00,WeatherDisplay:10.37,2013-03-17 02:53:00,
2013-03-17 02:58:00,30.7,28.4,28.68,ESE,112,3.5,3.5,91,0.00,,,0.00,WeatherDisplay:10.37,2013-03-17 02:58:00,
2013-03-17 03:03:00,30.7,28.4,28.68,ESE,112,3.5,3.5,91,0.00,,,0.00,WeatherDisplay:10.37,2013-03-17 03:03:00,
2013-03-17 03:08:00,30.7,28.4,28.68,ESE,112,3.5,3.5,91,0.00,,,0.00,WeatherDisplay:10.37,2013-03-17 03:08:00,
2013-03-17 03:13:00,30.7,28.4,28.68,ESE,112,1.1,1.1,91,0.00,,,0.00,WeatherDisplay:10.37,2013-03-17 03:13:00,
2013-03-17 03:18:00,30.7,28.4,28.68,ESE,112,3.5,3.5,91,0.00,,,0.00,WeatherDisplay:10.37,2013-03-17 03:18:00,
2013-03-17 03:23:00,30.9,28.6,28.68,ESE,112,4.6,4.8,91,0.00,,,0.00,WeatherDisplay:10.37,2013-03-17 03:23:00,
2013-03-17 03:28:00,30.9,28.6,28.68,ESE,112,2.3,2.3,91,0.00,,,0.00,WeatherDisplay:10.37,2013-03-17 03:28:00,
2013-03-17 03:33:00,31.1,28.8,28.68,ESE,112,3.5,3.5,91,0.00,,,0.00,WeatherDisplay:10.37,2013-03-17 03:33:00,
2013-03-17 03:38:00,31.1,28.8,28.68,ESE,112,1.1,2.4,91,0.00,,,0.00,WeatherDisplay:10.37,2013-03-17 03:38:00,
2013-03-17 03:43:00,31.3,29.0,28.68,ESE,112,4.6,4.6,91,0.00,,,0.00,WeatherDisplay:10.37,2013-03-17 03:43:00,
2013-03-17 03:48:00,31.3,29.0,28.68,ESE,112,2.3,2.3,91,0.00,,,0.00,WeatherDisplay:10.37,2013-03-17 03:48:00,
2013-03-17 03:53:00,31.3,29.0,28.68,ESE,112,3.5,3.5,91,0.00,,,0.00,WeatherDisplay:10.37,2013-03-17 03:53:00,
2013-03-17 03:58:00,31.8,29.5,28.68,ESE,112,4.6,4.6,91,0.00,,,0.00,WeatherDisplay:10.37,2013-03-17 03:58:00,
2013-03-17 04:00:00,32.0,29.7,28.68,ESE,112,2.3,4.5,91,0.00,,,0.00,WeatherDisplay:10.37,2013-03-17 04:00:00,
2013-03-17 04:05:00,32.2,30.1,28.68,ESE,112,3.5,3.5,92,0.00,,,0.00,WeatherDisplay:10.37,2013-03-17 04:05:00,
2013-03-17 04:10:00,32.2,30.1,28.68,ESE,112,4.6,4.6,92,0.00,,,0.00,WeatherDisplay:10.37,2013-03-17 04:10:00,
2013-03-17 04:15:00,32.4,30.3,28.68,ESE,112,6.9,6.9,92,0.00,,,0.00,WeatherDisplay:10.37,2013-03-17 04:15:00,
2013-03-17 04:20:00,32.4,30.3,28.68,ESE,112,3.5,4.9,92,0.00,,,0.00,WeatherDisplay:10.37,2013-03-17 04:20:00,
2013-03-17 04:25:00,32.5,30.5,28.68,ESE,112,3.5,3.5,92,0.00,,,0.00,WeatherDisplay:10.37,2013-03-17 04:25:00,
2013-03-17 04:30:00,32.5,30.5,28.68,ESE,112,4.2,4.2,92,0.00,,,0.00,WeatherDisplay:10.37,2013-03-17 04:30:00,
2013-03-17 04:35:00,32.5,30.5,28.66,ESE,112,9.2,9.2,92,0.00,,,0.00,WeatherDisplay:10.37,2013-03-17 04:35:00,
2013-03-17 04:40:00,32.7,30.7,28.66,ESE,112,2.3,7.1,92,0.00,,,0.00,WeatherDisplay:10.37,2013-03-17 04:40:00,
2013-03-17 04:45:00,32.7,30.7,28.66,ESE,112,6.9,6.9,92,0.00,,,0.00,WeatherDisplay:10.37,2013-03-17 04:45:00,
2013-03-17 04:50:00,32.7,30.7,28.66,ESE,112,8.1,8.1,92,0.00,,,0.00,WeatherDisplay:10.37,2013-03-17 04:50:00,
2013-03-17 04:55:00,32.7,30.7,28.66,ESE,112,3.5,3.5,92,0.00,,,0.00,WeatherDisplay:10.37,2013-03-17 04:55:00,
2013-03-17 05:00:00,32.7,30.7,28.66,ESE,112,4.6,5.7,92,0.00,,,0.00,WeatherDisplay:10.37,2013-03-17 05:00:00,
2013-03-17 05:05:00,32.7,30.7,28.65,ESE,112,6.9,6.9,92,0.00,,,0.00,WeatherDisplay:10.37,2013-03-17 05:05:00,
2013-03-17 05:10:00,32.7,30.7,28.65,ESE,112,10.4,10.4,92,0.00,,,0.00,WeatherDisplay:10.37,2013-03-17 05:10:00,
2013-03-17 05:15:00,32.7,30.7,28.65,ESE,112,4.6,5.1,92,0.00,,,0.00,WeatherDisplay:10.37,2013-03-17 05:15:00,
2013-03-17 05:20:00,32.7,30.7,28.65,ESE,112,5.8,5.8,92,0.00,,,0.00,WeatherDisplay:10.37,2013-03-17 05:20:00,
2013-03-17 05:25:00,32.7,30.7,28.65,ESE,112,8.1,8.1,92,0.00,,,0.00,WeatherDisplay:10.37,2013-03-17 05:25:00,
2013-03-17 05:30:00,32.7,30.7,28.65,ESE,112,2.3,6.3,92,0.00,,,0.00,WeatherDisplay:10.37,2013-03-17 05:30:00,
2013-03-17 05:35:00,32.7,30.7,28.65,ESE,112,4.6,4.6,92,0.00,,,0.00,WeatherDisplay:10.37,2013-03-17 05:35:00,
2013-03-17 05:40:00,32.7,30.7,28.65,ESE,112,4.6,6.7,92,0.00,,,0.00,WeatherDisplay:10.37,2013-03-17 05:40:00,
2013-03-17 05:45:00,32.7,30.7,28.65,ESE,112,8.1,8.3,92,0.00,,,0.00,WeatherDisplay:10.37,2013-03-17 05:45:00,
2013-03-17 05:50:00,32.7,30.7,28.65,ESE,112,3.5,5.6,92,0.00,,,0.00,WeatherDisplay:10.37,2013-03-17 05:50:00,
2013-03-17 05:55:00,32.7,30.7,28.65,ESE,112,4.6,8.9,92,0.00,,,0.00,WeatherDisplay:10.37,2013-03-17 05:55:00,
2013-03-17 06:00:00,32.9,30.8,28.64,ESE,112,4.6,8.9,92,0.00,,,0.00,WeatherDisplay:10.37,2013-03-17 06:00:00,
2013-03-17 06:05:00,32.9,30.8,28.64,ESE,112,6.9,7.1,92,0.00,,,0.00,WeatherDisplay:10.37,2013-03-17 06:05:00,
2013-03-17 06:10:00,32.9,30.8,28.64,ESE,112,5.8,5.8,92,0.00,,,0.00,WeatherDisplay:10.37,2013-03-17 06:10:00,
2013-03-17 06:15:00,32.9,30.8,28.64,ESE,112,10.4,10.4,92,0.00,,,0.00,WeatherDisplay:10.37,2013-03-17 06:15:00,
2013-03-17 06:20:00,33.1,31.0,28.64,ESE,112,4.6,7.6,92,0.00,,,0.00,WeatherDisplay:10.37,2013-03-17 06:20:00,
2013-03-17 06:25:00,33.3,31.2,28.64,ESE,112,9.2,9.2,92,0.00,,,0.00,WeatherDisplay:10.37,2013-03-17 06:25:00,
2013-03-17 06:30:00,33.3,31.2,28.64,ESE,112,8.1,8.1,92,0.00,,,0.00,WeatherDisplay:10.37,2013-03-17 06:30:00,
2013-03-17 06:35:00,33.3,31.2,28.64,ESE,112,5.8,5.8,92,0.00,,,0.00,WeatherDisplay:10.37,2013-03-17 06:35:00,
2013-03-17 06:40:00,33.3,31.2,28.64,ESE,112,4.6,4.6,92,0.00,,,0.00,WeatherDisplay:10.37,2013-03-17 06:40:00,
2013-03-17 06:45:00,33.4,31.4,28.64,ESE,112,2.3,2.3,92,0.00,,,0.00,WeatherDisplay:10.37,2013-03-17 06:45:00,
2013-03-17 06:50:00,33.4,31.4,28.64,ESE,112,1.1,2.9,92,0.00,,,0.00,WeatherDisplay:10.37,2013-03-17 06:50:00,
2013-03-17 06:55:00,33.4,31.4,28.64,ESE,112,11.5,11.5,92,0.00,,,0.00,WeatherDisplay:10.37,2013-03-17 06:55:00,
2013-03-17 07:00:00,33.4,31.4,28.64,ESE,112,4.6,10.2,92,0.00,,,0.00,WeatherDisplay:10.37,2013-03-17 07:00:00,
2013-03-17 07:05:00,33.6,31.5,28.64,ESE,112,8.1,8.1,92,0.00,,,0.00,WeatherDisplay:10.37,2013-03-17 07:05:00,
2013-03-17 07:10:00,33.6,31.5,28.64,ESE,112,2.3,2.7,92,0.00,,,0.00,WeatherDisplay:10.37,2013-03-17 07:10:00,
2013-03-17 07:15:00,33.6,31.5,28.64,ESE,112,6.9,6.9,92,0.00,,,0.00,WeatherDisplay:10.37,2013-03-17 07:15:00,
2013-03-17 07:20:00,33.6,31.5,28.64,ESE,112,4.6,7.1,92,0.00,,,0.00,WeatherDisplay:10.37,2013-03-17 07:20:00,
2013-03-17 07:25:00,33.6,31.5,28.64,East,90,4.6,5.1,92,0.00,,,0.00,WeatherDisplay:10.37,2013-03-17 07:25:00,
2013-03-17 07:30:00,33.6,31.8,28.64,East,90,5.8,5.8,93,0.00,,,0.00,WeatherDisplay:10.37,2013-03-17 07:30:00,
2013-03-17 07:35:00,33.6,31.8,28.64,East,90,5.8,5.8,93,0.00,,,0.00,WeatherDisplay:10.37,2013-03-17 07:35:00,
2013-03-17 07:40:00,33.8,31.7,28.64,East,90,5.8,6.0,92,0.00,,,0.00,WeatherDisplay:10.37,2013-03-17 07:40:00,
2013-03-17 07:45:00,33.8,31.7,28.64,East,90,6.9,6.9,92,0.00,,,0.00,WeatherDisplay:10.37,2013-03-17 07:45:00,
2013-03-17 07:50:00,33.8,31.7,28.64,ENE,68,3.5,3.5,92,0.00,,,0.00,WeatherDisplay:10.37,2013-03-17 07:50:00,
2013-03-17 07:55:00,34.0,31.9,28.64,ENE,68,1.1,1.4,92,0.00,,,0.00,WeatherDisplay:10.37,2013-03-17 07:55:00,
2013-03-17 08:00:00,33.8,31.7,28.64,ENE,68,0.0,0.0,92,0.00,,,0.00,WeatherDisplay:10.37,2013-03-17 08:00:00,
2013-03-17 08:05:00,34.0,31.9,28.64,ENE,68,0.0,0.0,92,0.00,,,0.00,WeatherDisplay:10.37,2013-03-17 08:05:00,
2013-03-17 08:10:00,34.0,31.9,28.64,ENE,68,1.1,1.1,92,0.00,,,0.00,WeatherDisplay:10.37,2013-03-17 08:10:00,
2013-03-17 08:15:00,34.0,31.9,28.64,ENE,68,0.0,0.0,92,0.00,,,0.00,WeatherDisplay:10.37,2013-03-17 08:15:00,
2013-03-17 08:20:00,34.0,31.9,28.64,ENE,68,2.3,2.3,92,0.00,,,0.00,WeatherDisplay:10.37,2013-03-17 08:20:00,
2013-03-17 08:25:00,34.0,31.9,28.64,NE,45,4.6,4.6,92,0.00,,,0.00,WeatherDisplay:10.37,2013-03-17 08:25:00,
2013-03-17 08:30:00,34.3,32.3,28.64,NE,45,1.1,1.9,92,0.00,,,0.00,WeatherDisplay:10.37,2013-03-17 08:30:00,
2013-03-17 08:35:00,34.3,32.3,28.64,NE,45,3.5,3.5,92,0.00,,,0.00,WeatherDisplay:10.37,2013-03-17 08:35:00,
2013-03-17 08:40:00,34.3,32.3,28.64,NE,45,3.5,3.5,92,0.00,,,0.00,WeatherDisplay:10.37,2013-03-17 08:40:00,
2013-03-17 08:45:00,34.3,32.3,28.64,ENE,68,5.8,6.2,92,0.00,,,0.00,WeatherDisplay:10.37,2013-03-17 08:45:00,
2013-03-17 08:50:00,34.3,32.3,28.64,ENE,68,3.5,3.5,92,0.00,,,0.00,WeatherDisplay:10.37,2013-03-17 08:50:00,
2013-03-17 08:55:00,34.9,32.8,28.64,NE,45,3.5,3.6,92,0.00,,,0.00,WeatherDisplay:10.37,2013-03-17 08:55:00,
2013-03-17 09:00:00,34.9,33.1,28.64,ENE,68,3.5,3.8,93,0.00,,,0.00,WeatherDisplay:10.37,2013-03-17 09:00:00,
2013-03-17 09:05:00,35.2,33.4,28.63,ENE,68,3.5,3.5,93,0.00,,,0.00,WeatherDisplay:10.37,2013-03-17 09:05:00,
2013-03-17 09:10:00,35.2,33.4,28.63,ENE,68,2.3,2.3,93,0.00,,,0.00,WeatherDisplay:10.37,2013-03-17 09:10:00,
2013-03-17 09:15:00,35.2,33.4,28.63,ENE,68,3.5,3.5,93,0.00,,,0.00,WeatherDisplay:10.37,2013-03-17 09:15:00,
2013-03-17 09:20:00,35.2,33.4,28.63,NNE,22,5.8,5.8,93,0.00,,,0.00,WeatherDisplay:10.37,2013-03-17 09:20:00,
2013-03-17 09:25:00,35.4,33.6,28.62,NE,45,2.3,2.3,93,0.00,,,0.00,WeatherDisplay:10.37,2013-03-17 09:25:00,
2013-03-17 09:30:00,35.4,33.6,28.62,NE,45,2.3,3.1,93,0.00,,,0.00,WeatherDisplay:10.37,2013-03-17 09:30:00,
2013-03-17 09:35:00,36.0,34.1,28.62,NNE,22,3.5,3.5,93,0.00,,,0.00,WeatherDisplay:10.37,2013-03-17 09:35:00,
2013-03-17 09:40:00,36.0,34.1,28.62,NNE,22,3.5,3.5,93,0.00,,,0.00,WeatherDisplay:10.37,2013-03-17 09:40:00,
2013-03-17 09:45:00,36.3,34.5,28.62,NNW,338,4.6,5.0,93,0.00,,,0.00,WeatherDisplay:10.37,2013-03-17 09:45:00,
2013-03-17 09:50:00,36.3,34.5,28.62,ENE,68,3.5,3.8,93,0.00,,,0.00,WeatherDisplay:10.37,2013-03-17 09:50:00,
2013-03-17 09:55:00,37.0,35.2,28.62,East,90,6.9,6.9,93,0.00,,,0.00,WeatherDisplay:10.37,2013-03-17 09:55:00,
2013-03-17 10:00:00,37.2,35.4,28.62,NE,45,1.1,3.3,93,0.00,,,0.00,WeatherDisplay:10.37,2013-03-17 10:00:00,
2013-03-17 10:05:00,37.2,35.4,28.62,ENE,68,4.6,5.1,93,0.00,,,0.00,WeatherDisplay:10.37,2013-03-17 10:05:00,
2013-03-17 10:10:00,37.4,35.6,28.62,NNE,22,4.6,4.6,93,0.00,,,0.00,WeatherDisplay:10.37,2013-03-17 10:10:00,
2013-03-17 10:15:00,37.2,35.4,28.62,NNE,22,10.4,10.4,93,0.00,,,0.00,WeatherDisplay:10.37,2013-03-17 10:15:00,
2013-03-17 10:20:00,37.2,35.4,28.62,East,90,11.5,11.5,93,0.00,,,0.00,WeatherDisplay:10.37,2013-03-17 10:20:00,
2013-03-17 10:25:00,37.2,35.4,28.62,NNE,22,8.1,8.1,93,0.00,,,0.00,WeatherDisplay:10.37,2013-03-17 10:25:00,
2013-03-17 10:30:00,36.7,34.8,28.62,NE,45,3.5,4.3,93,0.00,,,0.00,WeatherDisplay:10.37,2013-03-17 10:30:00,
2013-03-17 10:35:00,36.5,34.7,28.62,NE,45,3.5,3.6,93,0.00,,,0.00,WeatherDisplay:10.37,2013-03-17 10:35:00,
2013-03-17 10:40:00,36.5,34.7,28.62,NNE,22,9.2,9.2,93,0.00,,,0.00,WeatherDisplay:10.37,2013-03-17 10:40:00,
2013-03-17 10:45:00,36.3,34.2,28.62,NNE,22,6.9,7.3,92,0.00,,,0.00,WeatherDisplay:10.37,2013-03-17 10:45:00,
2013-03-17 10:50:00,36.3,34.2,28.62,NE,45,5.8,5.8,92,0.00,,,0.00,WeatherDisplay:10.37,2013-03-17 10:50:00,
2013-03-17 10:55:00,36.5,34.4,28.62,NE,45,5.8,5.8,92,0.00,,,0.00,WeatherDisplay:10.37,2013-03-17 10:55:00,
2013-03-17 11:00:00,36.5,34.4,28.62,NNE,22,2.3,5.9,92,0.00,,,0.00,WeatherDisplay:10.37,2013-03-17 11:00:00,
2013-03-17 11:05:00,36.7,34.6,28.62,NNE,22,4.6,4.6,92,0.00,,,0.00,WeatherDisplay:10.37,2013-03-17 11:05:00,
2013-03-17 11:10:00,36.7,34.6,28.62,NNE,22,4.6,5.1,92,0.00,,,0.00,WeatherDisplay:10.37,2013-03-17 11:10:00,
2013-03-17 11:15:00,36.7,34.6,28.62,North,0,6.9,6.9,92,0.00,,,0.00,WeatherDisplay:10.37,2013-03-17 11:15:00,
2013-03-17 11:20:00,36.7,34.6,28.62,NE,45,11.5,11.5,92,0.00,,,0.00,WeatherDisplay:10.37,2013-03-17 11:20:00,
2013-03-17 11:25:00,37.2,35.1,28.62,NE,45,4.6,4.6,92,0.00,,,0.00,WeatherDisplay:10.37,2013-03-17 11:25:00,
2013-03-17 11:30:00,37.4,35.6,28.61,East,90,1.1,2.7,93,0.00,,,0.00,WeatherDisplay:10.37,2013-03-17 11:30:00,
2013-03-17 11:35:00,37.4,35.6,28.61,ESE,112,2.3,8.0,93,0.00,,,0.00,WeatherDisplay:10.37,2013-03-17 11:35:00,
2013-03-17 11:40:00,37.6,35.7,28.60,ENE,68,2.3,5.9,93,0.00,,,0.00,WeatherDisplay:10.37,2013-03-17 11:40:00,
2013-03-17 11:45:00,37.4,35.6,28.60,NE,45,4.6,4.6,93,0.00,,,0.00,WeatherDisplay:10.37,2013-03-17 11:45:00,
2013-03-17 11:50:00,37.4,35.6,28.60,NNE,22,3.5,3.5,93,0.00,,,0.00,WeatherDisplay:10.37,2013-03-17 11:50:00,
2013-03-17 11:55:00,37.8,35.9,28.60,NNW,338,9.2,9.3,93,0.00,,,0.00,WeatherDisplay:10.37,2013-03-17 11:55:00,
2013-03-17 12:00:00,37.8,35.9,28.60,North,0,1.1,3.7,93,0.00,,,0.00,WeatherDisplay:10.37,2013-03-17 12:00:00,
2013-03-17 12:05:00,37.6,35.7,28.60,NE,45,4.6,4.6,93,0.00,,,0.00,WeatherDisplay:10.37,2013-03-17 12:05:00,
2013-03-17 12:10:00,37.6,35.7,28.60,ENE,68,3.5,4.4,93,0.00,,,0.00,WeatherDisplay:10.37,2013-03-17 12:10:00,
2013-03-17 12:15:00,37.2,35.4,28.60,NE,45,8.1,8.1,93,0.00,,,0.00,WeatherDisplay:10.37,2013-03-17 12:15:00,
2013-03-17 12:20:00,37.2,35.4,28.60,NE,45,8.1,8.1,93,0.00,,,0.00,WeatherDisplay:10.37,2013-03-17 12:20:00,
2013-03-17 12:25:00,37.0,34.9,28.60,East,90,4.6,4.6,92,0.02,RA,,0.02,WeatherDisplay:10.37,2013-03-17 12:25:00,
2013-03-17 12:30:00,37.0,34.9,28.60,ENE,68,10.4,10.4,92,0.02,RA,,0.02,WeatherDisplay:10.37,2013-03-17 12:30:00,
2013-03-17 12:35:00,37.0,34.9,28.60,NNE,22,5.8,5.9,92,0.02,,,0.02,WeatherDisplay:10.37,2013-03-17 12:35:00,
2013-03-17 12:40:00,37.0,34.9,28.60,NNE,22,5.8,9.0,92,0.02,,,0.02,WeatherDisplay:10.37,2013-03-17 12:40:00,
2013-03-17 12:45:00,37.2,35.1,28.60,NNE,22,6.9,7.0,92,0.02,,,0.02,WeatherDisplay:10.37,2013-03-17 12:45:00,
2013-03-17 12:50:00,37.2,35.1,28.60,NNE,22,5.8,5.8,92,0.02,,,0.02,WeatherDisplay:10.37,2013-03-17 12:50:00,
2013-03-17 12:55:00,37.0,34.9,28.60,NE,45,3.5,3.5,92,0.02,,,0.02,WeatherDisplay:10.37,2013-03-17 12:55:00,
2013-03-17 13:00:00,37.0,34.9,28.60,NE,45,10.4,10.4,92,0.02,,,0.02,WeatherDisplay:10.37,2013-03-17 13:00:00,
2013-03-17 13:05:00,36.7,34.6,28.60,North,0,4.6,4.7,92,0.02,,,0.02,WeatherDisplay:10.37,2013-03-17 13:05:00,
2013-03-17 13:10:00,36.7,34.6,28.60,ENE,68,3.5,3.5,92,0.02,,,0.02,WeatherDisplay:10.37,2013-03-17 13:10:00,
2013-03-17 13:15:00,36.7,34.6,28.60,NE,45,8.1,8.1,92,0.02,,,0.02,WeatherDisplay:10.37,2013-03-17 13:15:00,
2013-03-17 13:20:00,36.7,34.6,28.60,ENE,68,4.6,4.9,92,0.02,,,0.02,WeatherDisplay:10.37,2013-03-17 13:20:00,
2013-03-17 13:25:00,36.9,34.8,28.60,NNE,22,2.3,2.3,92,0.00,,,0.02,WeatherDisplay:10.37,2013-03-17 13:25:00,
2013-03-17 13:30:00,37.0,34.9,28.60,NE,45,3.5,4.0,92,0.00,,,0.02,WeatherDisplay:10.37,2013-03-17 13:30:00,
2013-03-17 13:35:00,37.0,34.9,28.60,NE,45,3.5,4.0,92,0.00,,,0.02,WeatherDisplay:10.37,2013-03-17 13:35:00,
2013-03-17 13:40:00,37.0,34.9,28.60,NNE,22,2.3,2.3,92,0.00,,,0.02,WeatherDisplay:10.37,2013-03-17 13:40:00,
2013-03-17 13:45:00,37.0,34.9,28.60,NE,45,4.6,4.6,92,0.00,,,0.02,WeatherDisplay:10.37,2013-03-17 13:45:00,
2013-03-17 13:50:00,37.0,34.9,28.60,ENE,68,1.1,2.2,92,0.00,,,0.02,WeatherDisplay:10.37,2013-03-17 13:50:00,
2013-03-17 13:55:00,37.0,34.9,28.60,ENE,68,1.1,2.2,92,0.00,,,0.02,WeatherDisplay:10.37,2013-03-17 13:55:00,
2013-03-17 14:00:00,36.5,34.4,28.60,ENE,68,1.8,1.8,92,0.00,,,0.02,WeatherDisplay:10.37,2013-03-17 14:00:00,
2013-03-17 14:05:00,36.3,34.2,28.61,ENE,68,2.3,2.3,92,0.02,RA,,0.04,WeatherDisplay:10.37,2013-03-17 14:05:00,
2013-03-17 14:10:00,36.3,34.2,28.61,East,90,3.5,5.2,92,0.02,RA,,0.04,WeatherDisplay:10.37,2013-03-17 14:10:00,
2013-03-17 14:15:00,36.0,33.9,28.61,SSE,158,5.8,5.8,92,0.02,,,0.04,WeatherDisplay:10.37,2013-03-17 14:15:00,
2013-03-17 14:20:00,35.8,33.7,28.61,SSE,158,3.5,4.6,92,0.02,,,0.04,WeatherDisplay:10.37,2013-03-17 14:20:00,
2013-03-17 14:25:00,35.8,33.7,28.61,ESE,112,3.5,3.5,92,0.02,,,0.04,WeatherDisplay:10.37,2013-03-17 14:25:00,
2013-03-17 14:30:00,35.8,33.7,28.61,SE,135,2.3,3.5,92,0.02,,,0.04,WeatherDisplay:10.37,2013-03-17 14:30:00,
2013-03-17 14:35:00,35.8,33.7,28.61,SE,135,5.8,5.8,92,0.02,,,0.04,WeatherDisplay:10.37,2013-03-17 14:35:00,
2013-03-17 14:40:00,35.8,33.7,28.61,SE,135,3.5,3.5,92,0.02,,,0.04,WeatherDisplay:10.37,2013-03-17 14:40:00,
2013-03-17 14:45:00,35.8,33.7,28.61,SE,135,4.6,4.6,92,0.02,,,0.04,WeatherDisplay:10.37,2013-03-17 14:45:00,
2013-03-17 14:50:00,35.8,33.7,28.61,SSE,158,1.1,4.4,92,0.02,,,0.04,WeatherDisplay:10.37,2013-03-17 14:50:00,
2013-03-17 14:55:00,35.8,33.7,28.61,SSE,158,4.6,4.6,92,0.02,,,0.04,WeatherDisplay:10.37,2013-03-17 14:55:00,
2013-03-17 15:00:00,35.8,33.7,28.61,SSE,158,3.5,5.0,92,0.02,,,0.04,WeatherDisplay:10.37,2013-03-17 15:00:00,
2013-03-17 15:05:00,36.0,33.9,28.61,SE,135,3.5,3.6,92,0.00,,,0.04,WeatherDisplay:10.37,2013-03-17 15:05:00,
2013-03-17 15:10:00,36.0,33.9,28.61,SSE,158,4.6,5.4,92,0.00,,,0.04,WeatherDisplay:10.37,2013-03-17 15:10:00,
2013-03-17 15:15:00,36.0,33.9,28.61,SE,135,2.3,4.2,92,0.00,,,0.04,WeatherDisplay:10.37,2013-03-17 15:15:00,
2013-03-17 15:20:00,36.3,34.2,28.62,SE,135,3.5,3.5,92,0.00,,,0.04,WeatherDisplay:10.37,2013-03-17 15:20:00,
2013-03-17 15:25:00,36.3,34.2,28.62,ESE,112,5.8,5.8,92,0.00,,,0.04,WeatherDisplay:10.37,2013-03-17 15:25:00,
2013-03-17 15:30:00,36.3,34.2,28.62,SSE,158,4.6,7.3,92,0.00,,,0.04,WeatherDisplay:10.37,2013-03-17 15:30:00,
2013-03-17 15:35:00,36.7,34.6,28.62,SE,135,12.7,12.7,92,0.00,,,0.04,WeatherDisplay:10.37,2013-03-17 15:35:00,
2013-03-17 15:40:00,36.9,34.8,28.62,SE,135,6.9,6.9,92,0.00,,,0.04,WeatherDisplay:10.37,2013-03-17 15:40:00,
2013-03-17 15:45:00,37.0,34.9,28.62,SE,135,12.7,12.7,92,0.00,,,0.04,WeatherDisplay:10.37,2013-03-17 15:45:00,
2013-03-17 15:50:00,37.2,35.1,28.62,SE,135,10.4,12.1,92,0.00,,,0.04,WeatherDisplay:10.37,2013-03-17 15:50:00,
2013-03-17 15:55:00,37.4,35.0,28.62,SSE,158,11.5,11.5,91,0.00,,,0.04,WeatherDisplay:10.37,2013-03-17 15:55:00,
2013-03-17 16:00:00,37.2,34.8,28.62,SE,135,9.2,9.2,91,0.00,,,0.04,WeatherDisplay:10.37,2013-03-17 16:00:00,
2013-03-17 16:05:00,37.2,34.8,28.62,SSE,158,9.2,9.2,91,0.00,,,0.04,WeatherDisplay:10.37,2013-03-17 16:05:00,
2013-03-17 16:10:00,37.2,34.8,28.62,SE,135,4.6,12.1,91,0.00,,,0.04,WeatherDisplay:10.37,2013-03-17 16:10:00,
2013-03-17 16:15:00,36.7,34.3,28.62,SSE,158,9.2,9.2,91,0.00,,,0.04,WeatherDisplay:10.37,2013-03-17 16:15:00,
2013-03-17 16:20:00,36.3,33.9,28.62,SSE,158,9.2,9.2,91,0.00,,,0.04,WeatherDisplay:10.37,2013-03-17 16:20:00,
2013-03-17 16:25:00,36.3,33.9,28.62,SE,135,4.6,4.8,91,0.00,,,0.04,WeatherDisplay:10.37,2013-03-17 16:25:00,
2013-03-17 16:30:00,36.3,33.9,28.62,South,180,8.1,9.4,91,0.00,,,0.04,WeatherDisplay:10.37,2013-03-17 16:30:00,
2013-03-17 16:35:00,36.3,33.9,28.64,SE,135,12.7,12.7,91,0.00,,,0.04,WeatherDisplay:10.37,2013-03-17 16:35:00,
2013-03-17 16:40:00,36.5,33.6,28.64,South,180,9.2,9.2,89,0.00,,,0.04,WeatherDisplay:10.37,2013-03-17 16:40:00,
2013-03-17 16:45:00,36.7,33.7,28.64,ESE,112,11.5,11.5,89,0.00,,,0.04,WeatherDisplay:10.37,2013-03-17 16:45:00,
2013-03-17 16:50:00,36.7,33.7,28.64,SSE,158,6.9,7.1,89,0.00,,,0.04,WeatherDisplay:10.37,2013-03-17 16:50:00,
2013-03-17 16:55:00,36.7,33.7,28.64,SSE,158,9.2,9.2,89,0.00,,,0.04,WeatherDisplay:10.37,2013-03-17 16:55:00,
2013-03-17 17:00:00,36.7,33.7,28.64,SE,135,5.8,6.6,89,0.00,,,0.04,WeatherDisplay:10.37,2013-03-17 17:00:00,
2013-03-17 17:05:00,36.7,33.7,28.64,NE,45,1.1,1.6,89,0.00,,,0.04,WeatherDisplay:10.37,2013-03-17 17:05:00,
2013-03-17 17:10:00,36.7,33.7,28.64,ENE,68,3.5,3.5,89,0.00,,,0.04,WeatherDisplay:10.37,2013-03-17 17:10:00,
2013-03-17 17:15:00,36.7,33.7,28.64,NE,45,2.3,2.3,89,0.00,,,0.04,WeatherDisplay:10.37,2013-03-17 17:15:00,
2013-03-17 17:20:00,36.7,33.7,28.64,NE,45,0.0,0.0,89,0.00,,,0.04,WeatherDisplay:10.37,2013-03-17 17:20:00,
2013-03-17 17:25:00,36.5,33.6,28.64,NNE,22,2.3,2.5,89,0.00,,,0.04,WeatherDisplay:10.37,2013-03-17 17:25:00,
2013-03-17 17:30:00,36.3,33.4,28.64,NE,45,2.3,3.6,89,0.00,,,0.04,WeatherDisplay:10.37,2013-03-17 17:30:00,
2013-03-17 17:35:00,36.3,33.4,28.64,ENE,68,3.5,3.5,89,0.00,,,0.04,WeatherDisplay:10.37,2013-03-17 17:35:00,
2013-03-17 17:40:00,36.1,33.2,28.64,NNE,22,0.0,4.8,89,0.00,,,0.04,WeatherDisplay:10.37,2013-03-17 17:40:00,
2013-03-17 17:45:00,36.1,33.2,28.64,NNE,22,4.6,4.6,89,0.00,,,0.04,WeatherDisplay:10.37,2013-03-17 17:45:00,
2013-03-17 17:50:00,35.8,32.9,28.64,East,90,3.5,3.5,89,0.00,,,0.04,WeatherDisplay:10.37,2013-03-17 17:50:00,
2013-03-17 17:55:00,35.8,32.9,28.64,NE,45,2.3,2.3,89,0.00,,,0.04,WeatherDisplay:10.37,2013-03-17 17:55:00,
2013-03-17 18:00:00,35.8,32.9,28.64,NE,45,2.3,2.3,89,0.00,,,0.04,WeatherDisplay:10.37,2013-03-17 18:00:00,
2013-03-17 18:05:00,35.8,32.9,28.64,ENE,68,0.0,1.7,89,0.00,,,0.04,WeatherDisplay:10.37,2013-03-17 18:05:00,
2013-03-17 18:10:00,35.8,32.9,28.64,NE,45,0.0,0.0,89,0.00,,,0.04,WeatherDisplay:10.37,2013-03-17 18:10:00,
2013-03-17 18:15:00,35.4,32.5,28.64,ENE,68,3.5,3.5,89,0.00,,,0.04,WeatherDisplay:10.37,2013-03-17 18:15:00,
2013-03-17 18:20:00,35.4,32.5,28.64,ENE,68,2.3,2.3,89,0.00,,,0.04,WeatherDisplay:10.37,2013-03-17 18:20:00,
2013-03-17 18:25:00,35.2,32.6,28.64,East,90,3.5,3.5,90,0.00,,,0.04,WeatherDisplay:10.37,2013-03-17 18:25:00,
2013-03-17 18:30:00,35.2,32.6,28.64,ENE,68,2.3,2.4,90,0.00,,,0.04,WeatherDisplay:10.37,2013-03-17 18:30:00,
2013-03-17 18:35:00,35.4,32.8,28.64,NE,45,3.5,3.5,90,0.00,,,0.04,WeatherDisplay:10.37,2013-03-17 18:35:00,
2013-03-17 18:40:00,35.4,32.8,28.64,NNE,22,2.3,2.5,90,0.00,,,0.04,WeatherDisplay:10.37,2013-03-17 18:40:00,
2013-03-17 18:45:00,35.4,32.8,28.64,NNE,22,2.3,2.3,90,0.00,,,0.04,WeatherDisplay:10.37,2013-03-17 18:45:00,
2013-03-17 18:50:00,35.4,32.8,28.64,NE,45,0.0,1.5,90,0.00,,,0.04,WeatherDisplay:10.37,2013-03-17 18:50:00,
2013-03-17 18:55:00,35.4,32.8,28.64,NE,45,3.5,3.5,90,0.00,,,0.04,WeatherDisplay:10.37,2013-03-17 18:55:00,
2013-03-17 19:00:00,35.4,32.8,28.64,NE,45,1.1,1.1,90,0.00,,,0.04,WeatherDisplay:10.37,2013-03-17 19:00:00,
2013-03-17 19:05:00,35.4,32.8,28.64,NE,45,3.5,3.5,90,0.00,,,0.04,WeatherDisplay:10.37,2013-03-17 19:05:00,
2013-03-17 19:10:00,35.4,32.8,28.64,NE,45,3.5,3.6,90,0.00,,,0.04,WeatherDisplay:10.37,2013-03-17 19:10:00,
2013-03-17 19:15:00,35.4,32.8,28.70,NE,45,4.6,4.6,90,0.00,,,0.04,WeatherDisplay:10.37,2013-03-17 19:15:00,
2013-03-17 19:20:00,35.4,32.8,28.70,NNE,22,2.3,2.3,90,0.00,,,0.04,WeatherDisplay:10.37,2013-03-17 19:20:00,
2013-03-17 19:25:00,35.4,32.8,28.70,ENE,68,2.3,2.3,90,0.00,,,0.04,WeatherDisplay:10.37,2013-03-17 19:25:00,
2013-03-17 19:30:00,35.4,32.8,28.70,NNE,22,2.3,2.3,90,0.00,,,0.04,WeatherDisplay:10.37,2013-03-17 19:30:00,
2013-03-17 19:35:00,35.4,32.8,28.70,East,90,3.5,3.5,90,0.00,,,0.04,WeatherDisplay:10.37,2013-03-17 19:35:00,
2013-03-17 19:40:00,35.4,32.8,28.70,East,90,1.1,1.6,90,0.00,,,0.04,WeatherDisplay:10.37,2013-03-17 19:40:00,
2013-03-17 19:45:00,35.2,32.6,28.70,NNE,22,3.5,3.5,90,0.00,,,0.04,WeatherDisplay:10.37,2013-03-17 19:45:00,
2013-03-17 19:50:00,34.9,32.2,28.70,NNE,22,1.1,2.7,90,0.00,,,0.04,WeatherDisplay:10.37,2013-03-17 19:50:00,
2013-03-17 19:55:00,34.9,32.2,28.70,ENE,68,1.1,1.4,90,0.00,,,0.04,WeatherDisplay:10.37,2013-03-17 19:55:00,
2013-03-17 20:00:00,34.7,32.1,28.70,NE,45,0.0,0.0,90,0.00,,,0.04,WeatherDisplay:10.37,2013-03-17 20:00:00,
2013-03-17 20:05:00,34.7,32.1,28.70,NE,45,2.3,2.3,90,0.00,,,0.04,WeatherDisplay:10.37,2013-03-17 20:05:00,
2013-03-17 20:10:00,34.7,32.1,28.70,NE,45,2.3,2.3,90,0.00,,,0.04,WeatherDisplay:10.37,2013-03-17 20:10:00,
2013-03-17 20:15:00,34.7,32.1,28.70,NE,45,1.1,1.1,90,0.00,,,0.04,WeatherDisplay:10.37,2013-03-17 20:15:00,
2013-03-17 20:20:00,34.7,32.1,28.70,ESE,112,2.3,2.3,90,0.00,,,0.04,WeatherDisplay:10.37,2013-03-17 20:20:00,
2013-03-17 20:25:00,34.9,32.2,28.70,NNE,22,3.5,3.8,90,0.00,,,0.04,WeatherDisplay:10.37,2013-03-17 20:25:00,
2013-03-17 20:30:00,34.9,32.2,28.70,NE,45,4.6,4.6,90,0.00,,,0.04,WeatherDisplay:10.37,2013-03-17 20:30:00,
2013-03-17 20:35:00,35.2,32.6,28.70,ENE,68,4.6,4.8,90,0.00,,,0.04,WeatherDisplay:10.37,2013-03-17 20:35:00,
2013-03-17 20:40:00,35.2,32.6,28.70,NE,45,3.5,3.6,90,0.00,,,0.04,WeatherDisplay:10.37,2013-03-17 20:40:00,
2013-03-17 20:45:00,35.4,32.8,28.70,NE,45,8.1,8.1,90,0.00,,,0.04,WeatherDisplay:10.37,2013-03-17 20:45:00,
2013-03-17 20:50:00,35.4,32.8,28.70,NE,45,6.9,6.9,90,0.00,,,0.04,WeatherDisplay:10.37,2013-03-17 20:50:00,
2013-03-17 20:55:00,35.4,32.8,28.70,ENE,68,8.1,8.1,90,0.00,,,0.04,WeatherDisplay:10.37,2013-03-17 20:55:00,
2013-03-17 21:00:00,35.8,33.1,28.70,NE,45,3.5,5.2,90,0.00,,,0.04,WeatherDisplay:10.37,2013-03-17 21:00:00,
2013-03-17 21:05:00,35.8,33.1,28.70,ENE,68,5.8,5.8,90,0.00,,,0.04,WeatherDisplay:10.37,2013-03-17 21:05:00,
2013-03-17 21:10:00,35.8,33.1,28.70,ENE,68,3.6,4.0,90,0.00,,,0.04,WeatherDisplay:10.37,2013-03-17 21:10:00,
2013-03-17 21:15:00,35.8,33.1,28.72,ENE,68,4.6,4.6,90,0.00,,,0.04,WeatherDisplay:10.37,2013-03-17 21:15:00,
2013-03-17 21:20:00,35.8,33.1,28.72,NE,45,2.3,0.0,90,0.00,,,0.04,WeatherDisplay:10.37,2013-03-17 21:20:00,
2013-03-17 21:25:00,35.2,32.6,28.72,WSW,248,4.6,4.6,90,0.00,,,0.04,WeatherDisplay:10.37,2013-03-17 21:25:00,
2013-03-17 21:30:00,35.2,32.6,28.72,NNE,22,1.1,3.1,90,0.00,,,0.04,WeatherDisplay:10.37,2013-03-17 21:30:00,
2013-03-17 21:35:00,35.1,32.4,28.72,NE,45,4.6,4.6,90,0.00,,,0.04,WeatherDisplay:10.37,2013-03-17 21:35:00,
2013-03-17 21:40:00,34.9,32.2,28.72,NNE,22,3.5,3.6,90,0.00,,,0.04,WeatherDisplay:10.37,2013-03-17 21:40:00,
2013-03-17 21:45:00,34.9,32.2,28.72,NE,45,4.6,4.6,90,0.00,,,0.04,WeatherDisplay:10.37,2013-03-17 21:45:00,
2013-03-17 21:50:00,34.9,32.2,28.72,ENE,68,2.3,2.3,90,0.00,,,0.04,WeatherDisplay:10.37,2013-03-17 21:50:00,
2013-03-17 21:55:00,34.9,32.2,28.72,NE,45,8.1,8.1,90,0.00,,,0.04,WeatherDisplay:10.37,2013-03-17 21:55:00,
2013-03-17 22:00:00,34.9,32.2,28.72,NNE,22,4.6,6.6,90,0.00,,,0.04,WeatherDisplay:10.37,2013-03-17 22:00:00,
2013-03-17 22:05:00,34.5,31.9,28.72,NNE,22,3.5,3.5,90,0.00,,,0.04,WeatherDisplay:10.37,2013-03-17 22:05:00,
2013-03-17 22:10:00,34.5,31.9,28.72,East,90,4.6,4.6,90,0.00,,,0.04,WeatherDisplay:10.37,2013-03-17 22:10:00,
2013-03-17 22:15:00,34.5,31.9,28.72,NE,45,9.2,9.2,90,0.00,,,0.04,WeatherDisplay:10.37,2013-03-17 22:15:00,
2013-03-17 22:20:00,34.3,31.7,28.72,NE,45,4.6,4.6,90,0.00,,,0.04,WeatherDisplay:10.37,2013-03-17 22:20:00,
2013-03-17 22:25:00,34.3,31.7,28.72,East,90,3.5,3.8,90,0.00,,,0.04,WeatherDisplay:10.37,2013-03-17 22:25:00,
2013-03-17 22:30:00,34.3,31.7,28.72,ENE,68,4.5,4.5,90,0.00,,,0.04,WeatherDisplay:10.37,2013-03-17 22:30:00,
2013-03-17 22:35:00,34.2,31.8,28.73,NE,45,5.8,5.8,91,0.02,RA,,0.06,WeatherDisplay:10.37,2013-03-17 22:35:00,
2013-03-17 22:40:00,34.2,31.8,28.73,NE,45,4.6,4.6,91,0.02,RA,,0.06,WeatherDisplay:10.37,2013-03-17 22:40:00,
2013-03-17 22:45:00,34.2,31.8,28.73,North,0,5.8,5.8,91,0.02,,,0.06,WeatherDisplay:10.37,2013-03-17 22:45:00,
2013-03-17 22:50:00,34.2,31.8,28.73,NE,45,6.9,6.9,91,0.02,,,0.06,WeatherDisplay:10.37,2013-03-17 22:50:00,
2013-03-17 22:55:00,34.3,32.0,28.73,NNE,22,10.4,10.4,91,0.02,,,0.06,WeatherDisplay:10.37,2013-03-17 22:55:00,
2013-03-17 23:00:00,34.3,32.0,28.73,NNE,22,6.9,6.9,91,0.02,,,0.06,WeatherDisplay:10.37,2013-03-17 23:00:00,
2013-03-17 23:05:00,34.3,32.0,28.73,NNE,22,5.8,5.8,91,0.02,,,0.06,WeatherDisplay:10.37,2013-03-17 23:05:00,
2013-03-17 23:10:00,34.2,31.8,28.72,NE,45,3.5,3.6,91,0.02,,,0.06,WeatherDisplay:10.37,2013-03-17 23:10:00,
2013-03-17 23:15:00,34.2,31.8,28.72,NE,45,8.1,8.1,91,0.02,,,0.06,WeatherDisplay:10.37,2013-03-17 23:15:00,
2013-03-17 23:20:00,34.2,31.8,28.72,North,0,3.5,6.7,91,0.02,,,0.06,WeatherDisplay:10.37,2013-03-17 23:20:00,
2013-03-17 23:25:00,34.2,31.8,28.72,NNE,22,9.2,9.2,91,0.02,,,0.06,WeatherDisplay:10.37,2013-03-17 23:25:00,
2013-03-17 23:30:00,34.2,31.8,28.72,ENE,68,5.8,8.2,91,0.02,,,0.06,WeatherDisplay:10.37,2013-03-17 23:30:00,
2013-03-17 23:35:00,34.2,31.8,28.72,ENE,68,9.2,9.2,91,0.00,,,0.06,WeatherDisplay:10.37,2013-03-17 23:35:00,
2013-03-17 23:40:00,34.2,31.8,28.72,North,0,2.3,7.8,91,0.00,,,0.06,WeatherDisplay:10.37,2013-03-17 23:40:00,
2013-03-17 23:45:00,34.2,31.8,28.72,NNE,22,5.8,6.2,91,0.00,,,0.06,WeatherDisplay:10.37,2013-03-17 23:45:00,
2013-03-17 23:50:00,34.2,31.8,28.72,NNE,22,12.7,12.7,91,0.00,,,0.06,WeatherDisplay:10.37,2013-03-17 23:50:00,
2013-03-17 23:55:00,34.3,32.0,28.72,NNE,22,9.2,9.2,91,0.00,,,0.06,WeatherDisplay:10.37,2013-03-17 23:55:00,